Find OTC-P1-1

NORAD ID: 63351 Int'l Des: 2025-061 Owner: ORORA Country: D operational
LEOCIRCULARRETROGRADESSO

Current View

Loading 3D Globe...

About OTC-P1-1

Description loading...

Upcoming Passes

Passes for default location (London). Set your location on the main map for personalized predictions.

Altitude History

Loading altitude history...

Two-Line Element Set

1 63351U 25061A 26150.17077549 .00004993 00000-0 28292-3 0 9997
2 63351 97.5622 125.6671 0017887 332.5841 27.4444 15.13332652 64866
Epoch: May 30, 2026 • Age: 5 hours

Current Status

Altitude 541.0 km
Velocity 7.59 km/s
Sub-Earth Point 20.46°N, 82.63°W
Launch Date Mar 26, 2025
Age 1.1 years
Type other

Technical Details

Classification Payload
Mass 15.00 kg
Dry Mass 15.00 kg
Total Mass 15.00 kg
Length 0.30 m
Diameter 0.20 m
Span 0.40 m
Shape Box+2 pan
Manufacturer SPIREG
Bus Type Cubesat 6U
Phase Status In Orbit
Owner/State ORORA/D

Most Searched